RH
25 25 38 28 33 25 32 24 22 23 20 17 15 9 7 7 8 6 4 3 2 2 2 2 2 2 3 6 6 7 9 15 13 16 23 23 24 36 40 44 39 30 30 30 30 26 25
30 30 41 32 36 32 38 27 22 25 24 19 18 17 9 8 10 9 7 5 3 3 2 3 3 3 4 6 10 8 8 10 13 16 21 24 24 32 39 44 41 37 35 34 30 28 24
34 33 48 36 36 36 44 30 27 24 26 24 21 22 17 10 11 12 10 8 6 4 3 4 4 5 5 6 7 9 7 11 12 18 18 21 29 31 39 40 44 46 40 42 40 35 27
34 33 53 41 44 40 47 35 34 27 26 25 25 24 24 17 10 13 12 11 9 8 5 4 6 8 7 7 9 8 6 8 11 19 23 23 30 31 34 37 40 43 39 39 42 36 30
36 32 62 46 47 47 52 46 34 33 32 29 26 26 27 24 15 11 13 12 14 12 12 7 4 7 8 11 10 6 6 5 12 19 24 28 34 39 34 32 34 36 40 38 37 33 30
38 32 59 58 50 50 48 63 39 40 34 35 28 26 26 31 25 14 11 14 15 17 15 14 11 7 7 7 9 10 8 7 14 20 24 28 40 43 35 38 36 34 34 34 42 39 34
46 32 45 63 57 53 57 64 57 40 46 34 32 28 27 28 32 24 14 9 13 13 15 17 12 10 13 10 7 6 7 9 17 24 22 27 40 39 34 45 46 45 31 30 37 31 26
46 35 40 55 64 67 52 60 75 63 43 50 36 37 33 28 28 33 25 13 11 13 15 17 18 13 9 11 11 11 9 13 20 23 26 26 48 68 54 44 50 49 38 38 41 36 30
44 45 42 36 53 78 59 58 68 72 66 50 50 49 43 33 29 29 33 28 18 13 16 24 17 16 14 11 10 8 12 12 20 25 31 28 44 55 57 56 55 51 46 52 40 37 34
42 50 50 40 38 66 78 61 70 76 75 60 52 52 57 44 41 29 29 32 32 22 15 17 18 20 17 14 19 12 12 14 16 24 32 38 38 47 65 68 76 65 71 62 55 50 49
44 44 55 47 33 47 79 75 68 71 89 86 62 54 52 60 50 51 31 31 33 33 30 13 15 16 21 25 20 14 14 13 18 20 26 36 45 56 60 66 65 69 60 58 48 43 38
50 42 55 51 37 38 72 80 80 79 86 95 85 70 54 52 49 54 46 33 30 32 32 33 14 15 18 24 28 26 15 15 20 21 23 27 31 40 46 53 57 54 50 47 46 43 34
56 46 44 59 45 35 58 84 98 80 97 93 100 100 76 50 51 64 52 43 39 29 30 28 31 27 16 18 25 34 42 33 23 22 21 21 24 28 29 29 28 29 29 32 35 36 33
59 46 41 49 50 37 45 59 84 88 92 98 96 97 100 72 48 67 61 47 44 30 30 33 32 32 37 34 18 17 24 35 43 36 32 32 33 34 36 38 40 42 43 43 44 46 48
50 48 35 38 48 40 35 36 62 93 76 100 100 93 100 100 59 42 71 58 44 38 34 31 32 38 36 36 34 20 21 24 24 32 37 39 42 44 44 45 47 49 50 50 48 46 45
32 44 38 34 37 45 37 35 45 92 86 81 100 94 94 100 100 57 42 59 58 48 42 40 33 31 32 38 40 47 48 35 34 44 41 42 46 50 54 52 52 51 51 52 51 52 53
77 33 44 30 31 37 40 30 37 46 100 86 84 100 97 99 100 100 59 52 55 54 51 42 42 44 33 31 35 34 39 45 48 52 54 55 54 53 52 51 51 54 57 58 61 61 57
100 72 34 42 28 28 36 35 31 34 49 91 95 83 100 93 100 100 100 58 43 47 46 50 44 49 47 41 35 32 34 38 32 34 45 49 56 55 55 55 59 60 65 72 68 68 64
100 100 67 37 36 28 23 30 30 29 37 47 88 92 78 100 84 100 100 100 53 43 46 36 44 50 50 60 51 34 40 35 34 35 37 42 44 46 50 55 57 56 54 53 49 51 50
82 100 100 69 35 30 28 24 26 26 27 32 42 81 71 80 100 99 100 100 99 64 49 82 48 51 77 55 51 58 48 37 32 31 32 36 36 38 40 39 34 35 42 57 62 64 56
60 70 87 97 96 41 33 27 26 23 27 30 31 40 82 62 85 96 100 100 100 97 74 52 63 58 58 71 58 54 51 55 52 44 37 34 35 35 35 34 40 44 44 49 58 71 73
69 74 82 88 90 90 59 34 24 25 23 27 29 29 47 79 64 81 100 96 100 100 99 71 73 59 48 52 53 63 73 65 83 57 57 58 57 44 36 34 36 41 37 41 39 36 42
83 97 87 77 88 96 93 66 35 25 24 24 27 30 32 74 87 79 92 100 94 99 98 100 81 69 65 95 61 65 62 97 89 85 87 57 60 71 57 44 38 34 40 49 44 41 35
100 100 85 87 92 92 100 99 71 52 32 25 24 26 29 47 94 94 90 82 100 100 100 95 100 99 95 85 64 100 100 84 100 100 100 100 95 82 76 79 74 76 62 69 70 64 52
96 100 100 93 91 92 100 100 100 86 71 41 26 36 36 98 100 100 93 100 100 100 100 100 100 100 100 100 91 77 100 100 100 100 100 100 100 100 100 82 90 92 88 83 89 91 84
100 100 100 100 100 96 100 100 100 100 98 80 72 36 87 100 100 100 100 100 100 100 100 100 100 100 94 100 62 64 68 79 78 92 78 100 100 100 100 100 100 100 92 88 92 100 100
81 100 100 100 100 100 100 100 100 100 100 100 89 65 64 86 100 100 100 100 100 100 100 100 100 100 92 73 65 57 63 79 99 100 100 100 100 100 95 100 100 100 99 95 94 100 100
56 54 75 100 100 100 100 100 100 99 100 100 100 100 97 76 66 68 70 73 81 82 69 78 95 100 99 92 84 71 75 78 88 100 100 100 100 100 89 86 100 100 91 98 80 98 100
99 79 61 75 100 100 100 100 100 100 100 100 96 100 100 100 100 100 98 81 66 55 47 53 70 66 65 65 66 72 87 86 100 100 100 100 96 77 88 100 100 95 89 75 86 100 100
Wind_Speed
31 36 40 44 52 59 70 79 85 89 90 94 99 85 68 56 50 44 38 31 23 13 5 18 29 43 56 66 75 90 107 125 116 120 116 109 102 91 91 84 79 75 72 71 64 62 61
31 35 39 43 51 58 69 75 84 90 93 93 99 98 84 68 61 52 43 38 33 25 11 13 23 36 54 67 79 86 96 111 112 116 119 112 104 93 86 84 79 74 71 69 67 64 62
30 34 37 41 49 56 65 73 81 88 92 94 97 102 94 80 67 60 46 43 40 33 22 14 17 27 48 63 75 84 87 98 107 117 117 110 102 92 90 89 86 81 75 71 67 64 61
28 31 35 39 45 54 60 71 77 85 91 96 96 99 101 88 74 62 53 41 39 36 29 18 17 26 37 55 69 77 80 90 100 115 112 107 101 97 88 90 89 83 78 73 68 65 63
25 29 32 37 42 49 55 65 72 80 87 93 95 95 99 98 84 69 57 49 36 34 31 23 10 22 36 41 47 61 73 76 89 111 111 105 101 96 94 90 90 86 79 76 72 70 66
23 26 29 34 39 45 52 58 67 74 82 89 94 94 94 98 93 80 66 56 46 34 28 27 21 10 20 33 44 54 61 65 81 107 110 106 101 96 92 89 87 84 80 77 75 72 69
23 23 28 29 35 41 46 53 60 67 74 83 88 94 97 96 97 90 78 63 54 42 32 23 27 20 17 26 30 42 47 52 73 98 105 105 99 93 90 87 83 81 81 81 76 75 71
19 23 25 27 30 37 41 48 54 60 66 74 81 86 92 96 94 96 88 79 64 49 44 31 16 28 23 23 23 29 36 47 70 89 99 103 100 95 90 87 85 83 82 79 79 77 74
18 21 23 26 26 31 38 43 47 54 60 66 73 80 85 92 95 95 95 87 77 60 50 44 26 15 29 26 27 30 32 49 65 80 87 97 98 93 92 88 85 85 84 85 81 78 75
18 19 22 23 25 26 33 40 43 47 54 61 66 72 78 83 90 93 95 91 82 76 59 48 39 28 16 20 29 34 38 43 60 74 85 91 94 93 93 89 88 85 85 84 82 78 74
20 17 20 20 23 23 25 33 38 43 46 53 59 66 71 77 81 83 91 93 85 78 68 56 46 36 30 21 16 25 36 40 50 65 78 88 93 93 91 90 88 85 83 82 79 77 74
21 18 17 17 19 21 22 26 32 37 41 45 52 58 65 69 75 78 83 87 87 79 72 64 53 44 36 32 26 17 19 33 42 53 64 74 81 85 88 89 88 85 84 84 82 79 75
24 21 17 15 17 19 19 21 26 31 37 40 44 50 57 63 67 72 75 80 81 80 73 72 64 57 45 39 33 26 21 15 23 33 41 51 60 66 70 72 72 72 72 70 70 72 72
25 25 20 15 14 15 18 17 19 24 28 35 38 43 47 55 60 64 67 73 74 78 74 68 68 65 61 51 34 25 20 20 23 20 22 24 24 24 25 26 28 31 36 40 42 46 48
27 27 23 19 15 13 15 16 16 19 23 25 33 37 40 45 52 55 58 63 68 71 74 71 66 63 61 57 49 31 20 20 22 24 23 23 20 21 20 20 23 27 30 32 34 34 35
24 27 27 23 19 16 15 16 16 16 19 22 24 32 34 38 40 48 50 55 58 63 66 69 69 65 59 54 54 49 45 37 30 29 25 25 24 20 19 17 15 15 15 16 16 16 19
28 23 28 27 23 19 18 17 13 14 17 19 21 23 30 31 35 37 43 45 49 52 56 60 62 63 65 61 50 46 41 40 36 32 28 25 21 18 15 13 11 9 10 11 12 14 18
29 27 25 29 28 24 21 19 17 15 13 15 20 20 22 26 26 32 35 38 41 44 47 49 53 56 57 56 55 55 44 35 26 20 26 26 26 21 18 17 16 14 13 10 9 8 8
26 28 26 25 29 28 23 23 21 18 16 15 16 17 17 18 21 25 30 30 33 35 39 41 43 46 48 50 50 46 45 46 43 34 26 20 16 16 15 15 13 11 8 6 4 4 5
30 28 28 25 26 30 27 25 25 25 18 18 19 18 17 14 15 18 20 24 27 28 30 32 35 37 37 40 42 42 41 41 39 36 36 37 35 32 30 27 22 11 3 4 7 6 5
35 31 30 27 25 27 33 29 28 26 26 22 20 21 23 17 12 13 16 18 20 22 23 25 25 26 29 29 30 31 33 34 33 33 33 34 37 35 32 28 24 19 13 9 4 2 1
39 35 34 31 32 29 29 33 30 29 29 27 27 25 26 26 16 14 12 14 18 20 18 20 19 22 22 22 23 24 24 27 28 29 27 27 29 32 34 33 31 33 32 27 20 20 16
41 41 38 37 33 30 30 30 34 34 32 32 33 33 30 27 29 25 16 15 15 16 18 18 20 22 21 15 21 22 19 21 22 23 25 25 26 27 32 33 33 31 32 29 28 30 30
48 45 45 42 40 36 32 33 31 33 39 39 40 39 31 29 28 27 24 18 19 21 20 19 18 23 24 24 26 23 29 20 23 27 32 32 27 28 31 35 34 28 28 29 32 35 36
53 51 46 48 47 44 41 39 39 38 36 36 38 34 32 30 27 28 26 26 24 24 26 24 23 22 28 29 31 20 26 26 26 31 34 37 36 35 37 37 38 34 32 33 38 39 38
61 58 56 52 49 48 48 47 39 41 43 39 37 36 30 27 27 28 28 29 30 31 31 29 32 31 28 30 33 31 30 27 30 30 32 36 36 40 42 44 46 45 43 42 42 44 43
66 66 63 62 60 58 54 54 52 44 41 45 46 44 43 40 34 33 33 34 36 36 36 38 39 37 38 41 39 39 34 33 35 39 34 38 41 46 51 49 54 58 53 53 52 50 53
73 71 72 69 67 66 63 61 61 59 51 46 45 48 51 52 51 51 48 45 45 43 42 43 45 45 44 45 44 43 45 39 41 44 51 47 49 55 58 61 61 63 65 63 65 62 61
91 88 80 76 76 74 73 72 69 66 66 62 59 55 53 53 55 58 59 58 59 58 59 58 54 55 57 53 51 48 51 45 44 53 60 59 62 63 67 66 67 70 70 71 68 67 68
Wind_Direction
334 340 343 350 351 356 6 13 17 17 15 14 17 19 21 24 24 26 37 35 40 31 139 174 178 186 185 191 197 201 203 207 206 208 210 210 212 213 215 219 222 225 225 225 229 233 236
340 341 342 351 355 358 7 15 20 22 20 18 19 21 23 26 27 28 37 40 48 52 69 134 163 179 182 183 194 201 204 207 206 206 208 209 210 211 212 218 221 223 227 229 233 235 239
339 338 342 348 357 1 9 15 22 25 25 22 23 23 24 27 32 29 29 44 47 56 64 107 138 165 181 187 191 198 202 205 202 206 210 209 210 209 211 214 219 224 228 232 235 238 241
336 339 343 349 1 360 11 15 22 26 28 26 27 26 26 28 32 35 35 37 53 55 62 84 138 146 174 185 193 200 202 205 198 204 205 206 210 211 213 215 219 225 229 232 235 240 242
331 338 344 349 3 2 10 16 23 25 28 29 30 30 28 28 32 35 38 38 40 58 66 67 109 159 166 187 197 204 204 203 200 203 204 206 208 212 215 217 219 223 228 232 235 239 244
323 335 346 347 360 7 7 16 22 26 28 32 32 34 33 29 31 35 38 42 43 50 61 81 78 120 193 183 191 197 203 201 198 202 204 205 208 212 216 219 221 225 230 233 237 240 243
315 331 338 350 356 6 5 15 20 25 28 32 35 33 36 34 30 34 38 43 49 49 52 69 99 104 125 196 191 203 200 200 198 199 202 205 208 212 216 220 223 227 230 234 239 241 244
309 320 333 348 357 3 7 12 17 23 27 30 34 35 35 38 36 33 36 41 44 51 54 54 82 117 128 154 179 191 192 197 194 199 203 206 209 213 218 222 224 227 232 235 238 242 245
296 312 325 338 357 5 3 11 17 19 24 30 31 36 35 37 39 37 35 37 41 45 54 55 58 95 126 143 155 167 182 192 193 198 203 208 210 214 218 221 225 229 233 236 240 244 248
282 303 317 331 348 1 3 6 13 18 22 26 31 32 36 36 37 39 40 37 38 42 48 56 62 67 82 137 149 165 173 186 195 198 203 208 212 215 219 223 227 230 233 237 242 246 250
274 288 306 323 338 354 3 4 9 14 18 22 27 31 34 36 37 38 40 43 39 39 43 48 57 70 75 82 143 165 174 182 189 197 202 207 212 218 224 227 230 233 236 242 246 250 254
265 273 293 312 328 341 358 2 6 11 15 18 20 28 31 34 37 38 40 43 46 43 40 46 50 61 76 85 91 123 167 180 189 197 203 206 212 218 223 227 233 238 242 246 249 252 256
259 263 273 294 313 329 349 358 1 8 12 17 14 19 27 32 35 40 40 43 44 47 45 43 49 54 61 69 81 90 110 149 181 195 204 212 216 221 226 231 236 240 244 248 251 252 255
257 259 261 269 293 320 336 352 359 3 6 15 15 16 15 26 35 39 40 42 44 45 50 49 47 52 55 56 63 75 98 121 141 154 163 176 185 202 211 220 228 236 240 241 241 243 245
267 261 262 263 272 301 319 340 348 351 2 3 14 14 13 15 29 37 41 43 42 45 48 52 53 51 55 58 59 65 84 109 123 131 137 140 150 164 177 192 206 216 223 226 230 236 241
290 270 261 261 264 276 293 315 331 340 350 358 2 9 14 7 14 29 36 42 42 44 47 49 51 55 56 57 63 71 78 89 103 97 121 132 134 145 159 170 176 188 199 209 219 227 237
335 288 267 260 264 267 280 296 315 329 333 340 355 356 5 10 4 11 26 37 39 43 45 47 51 51 54 56 57 65 79 87 92 91 97 108 114 119 130 142 157 177 198 219 235 249 258
322 329 283 267 266 269 269 281 294 307 318 328 332 348 348 359 4 357 8 25 32 39 43 44 46 51 52 52 55 58 60 70 82 91 95 103 107 114 123 127 131 129 127 141 163 183 202
305 316 321 281 265 268 274 274 279 288 298 305 309 322 343 342 358 358 353 4 23 29 36 39 44 46 48 48 51 53 61 61 60 62 67 73 90 108 114 117 125 134 143 155 165 214 251
296 304 312 316 279 267 272 276 277 282 287 294 295 299 308 331 333 347 355 351 359 18 27 29 33 42 43 43 46 47 48 54 59 62 61 55 51 48 45 36 24 7 346 100 92 73 56
285 291 299 311 313 280 269 275 275 279 287 290 291 295 291 302 316 322 332 338 345 354 11 21 24 32 37 37 36 39 43 42 43 50 53 49 48 45 44 37 34 29 6 358 353 84 89
281 283 288 294 301 303 281 269 272 277 283 287 293 291 292 282 291 304 305 319 316 332 347 357 5 11 22 23 24 21 22 22 24 28 31 32 32 27 22 23 22 22 20 5 358 351 321
279 282 282 286 288 294 299 289 275 274 276 282 284 288 291 282 276 282 290 294 307 311 324 326 338 344 358 355 357 1 4 354 349 358 359 4 6 4 1 358 359 4 2 359 357 354 358
273 274 280 282 282 281 283 291 292 287 277 276 282 289 284 282 275 272 274 285 283 292 301 313 315 321 324 329 339 325 331 332 320 325 330 333 338 344 347 345 341 341 347 342 340 342 341
267 271 274 276 282 276 278 280 286 288 288 283 280 281 283 285 276 268 278 277 282 280 287 295 301 305 305 310 320 310 300 305 323 306 308 319 320 324 327 330 329 324 326 330 330 329 327
265 265 266 270 275 276 275 276 276 283 283 284 282 271 272 280 281 277 281 281 280 279 278 286 290 294 298 290 304 305 303 291 303 307 301 300 307 309 315 316 317 316 318 319 320 321 314
259 264 265 266 267 270 271 272 272 272 274 279 282 279 278 271 271 274 272 277 282 280 279 279 284 290 294 299 296 298 299 286 282 288 299 292 301 305 312 311 311 312 315 316 315 313 312
258 259 260 265 266 266 269 268 268 270 266 264 271 277 279 279 280 279 275 274 276 277 282 284 284 287 287 291 294 292 295 288 274 282 302 297 299 305 309 308 306 306 307 309 313 313 310
262 259 257 261 262 263 266 267 267 267 269 267 264 267 268 272 276 277 278 279 278 280 280 284 285 285 289 290 290 292 292 283 278 287 299 296 297 302 301 301 300 304 305 308 309 307 306